Location: Poughquag
(41.6090°N, 73.6820°W)
Time: 02:49:42
(UTC-05:00)

XW-2B - Visible Passes

Search period start: 09 December 2023 00:00
Search period end: 19 December 2023 00:00
Orbit: 455 x 464 km, 97.5° (Epoch: 08 December)

Date Brightness Start Highest point End Pass type
(mag) Time Alt. Az. Time Alt. Az. Time Alt. Az.
09 Dec ? 05:50:45 10° NE 05:53:19 19° E 05:55:52 10° SE visible
09 Dec ? 17:55:09 10° S 17:58:36 67° W 18:02:04 10° NNW visible
10 Dec ? 17:23:24 10° SE 17:26:42 42° ENE 17:30:00 10° N visible
10 Dec ? 18:59:00 10° WSW 18:59:51 11° W 19:00:42 10° WNW visible
11 Dec ? 06:19:06 10° NNE 06:22:27 45° E 06:25:46 10° S visible
11 Dec ? 18:24:39 10° SSW 18:27:38 27° W 18:30:39 10° NW visible
12 Dec ? 05:47:55 10° NE 05:50:18 17° E 05:52:40 10° SE visible
12 Dec ? 17:52:06 10° S 17:55:33 75° WSW 17:59:02 10° NNW visible
13 Dec ? 17:20:21 10° SE 17:23:35 38° ENE 17:26:50 10° N visible
13 Dec ? 18:55:19 10° WSW 18:56:41 12° W 18:58:03 10° WNW visible
14 Dec ? 06:15:58 10° NNE 06:19:16 40° E 06:22:30 10° S visible
14 Dec ? 18:21:20 10° SSW 18:24:24 29° W 18:27:30 10° NW visible
15 Dec ? 05:44:51 10° NE 05:47:01 16° E 05:49:10 10° SE visible
15 Dec ? 17:48:47 10° SSE 17:52:15 85° WSW 17:55:45 10° NNW visible
16 Dec ? 17:17:04 10° SE 17:20:13 34° ENE 17:23:23 10° N visible
16 Dec ? 18:51:32 10° WSW 18:53:16 13° W 18:55:00 10° WNW visible
17 Dec ? 06:12:36 10° NNE 06:15:49 35° E 06:19:00 10° SSE visible
17 Dec ? 18:17:45 10° SSW 18:20:55 33° W 18:24:07 10° NNW visible
18 Dec ? 05:41:35 10° ENE 05:43:28 14° E 05:45:20 10° SE visible
18 Dec ? 17:45:14 10° SSE 17:48:42 85° ENE 17:52:11 10° N visible
